Regional Weather Roundup
Issued by NWS

Home | Current Version | Previous Version | Text Only | Print | Product List | Glossary Off
Versions: 1 2 3 4 5 6 7 8 9 10 11 12 13 14 15 16 17 18 19 20 21 22 23 24 25 26 27 28 29 30 31 32 33 34 35 36 37 38 39 40 41 42 43 44 45 46 47 48 49 50

000
ASUS43 KFSD 050110
RWRSD

WEATHER ROUNDUP FOR SOUTH DAKOTA
NATIONAL WEATHER SERVICE SIOUX FALLS SD
800 PM CDT MON MAY 04 2015

NOTE: "FAIR" INDICATES FEW OR NO CLOUDS BELOW 12,000 FEET WITH NO
SIGNIFICANT WEATHER AND/OR OBSTRUCTIONS TO VISIBILITY.


SDZ001>005-009-010-012>017-050200-
NORTHWEST AND NORTH CENTRAL SOUTH DAKOTA

CITY           SKY/WX    TMP DP  RH WIND       PRES   REMARKS
BUFFALO          N/A     55  31  39 SE23      30.01F
FAITH            N/A     54  35  48 E12       30.11F
MOBRIDGE       CLOUDY    63  27  25 SE8       30.11F
$$

SDZ012>016-024>037-041>051-057-063-072>074-050200-
SOUTHWEST AND SOUTH CENTRAL SOUTH DAKOTA

CITY           SKY/WX    TMP DP  RH WIND       PRES   REMARKS
RAPID CTY ARPT CLOUDY    55  36  48 S16G24    30.10F
PIERRE         CLOUDY    65  25  22 E10       30.09F
CUSTER         CLOUDY    44  33  65 SE7       30.13F
ELLSWORTH AFB  CLOUDY    57  38  50 S17G26    30.09F
PHILIP         CLOUDY    63  24  22 E12       30.09F
PINE RIDGE     CLOUDY    58  35  42 CALM      30.09F
SPEARFISH      FAIR      54  37  54 SE17G23   30.07R
WINNER         FAIR      65  26  23 NE6       30.09F
$$

SDZ004>011-016>023-039-040-050200-
NORTHEAST SOUTH DAKOTA

CITY           SKY/WX    TMP DP  RH WIND       PRES   REMARKS
ABERDEEN       CLOUDY    65  28  24 E6        30.14F
WATERTOWN      MOCLDY    66  25  21 E7        30.15F
BROOKINGS      MOCLDY    68  27  21 E8        30.13F
SISSETON         N/A     68  25  19 SE6       30.14F
$$

SDZ017-020-022-023-036>040-048>070-050200-
SOUTHEAST SOUTH DAKOTA

CITY           SKY/WX    TMP DP  RH WIND       PRES   REMARKS
SIOUX FALLS    CLOUDY    66  30  26 E10       30.11F
HURON          MOCLDY    68  27  21 E6        30.10F
CHAMBERLAIN    CLOUDY    66  26  21 E5        30.09F
MITCHELL       MOCLDY    70  29  21 SE8       30.09F
YANKTON        CLOUDY    64  41  42 SE5       30.08F
$$

ABBREVIATIONS USED IN REMARKS
   TC - TEMPERATURE IN CELSIUS
  WCI - WIND CHILL INDEX
   HX - HEAT INDEX
  VSB - VISIBILITY




USA.gov is the U.S. government's official web portal to all federal, state and local government web resources and services.